HULIANWANG DIGUI 16B

Last updated on Sat Dec 13 2025 00:02:09 GMT+0000 (Coordinated Universal Time)

1 67060U 25295B 25346.21279478 -.00000150 00000+0 43989-5 0 9996 2 67060 50.0012 14.4776 0013423 244.6732 115.2792 14.26022254 48
UTC large
Height (km)
Speed (km/s)
/
Latitude / Longitude
Inclination (degrees)
Orbital Period (minutes)
Azimuth
Elevation
Range (km)
Doppler Factor

Next 0 passes for location: London (51.5072 / 0.1276)

Sorry there are no passes over London.